CW9803 Weather Reports


time (UTC)temp
C
wind
direction
speed
KPH
gust
KPH
rain 1hr
cm
rain 24hr
cm
rain mn
cm
humidity
%
barometer
mb
20260510093413 5 111 0.0 0.0 0.00 0.00 0.00 89 1015.5
20260510092909 5 118 0.0 0.0 0.00 0.00 0.00 89 1015.8
20260510092407 5 137 0.0 0.0 0.00 0.00 0.00 89 1015.7
20260510091907 5 136 0.0 0.0 0.00 0.00 0.00 89 1015.8
20260510091404 5 136 0.0 0.0 0.00 0.00 0.00 89 1015.7
20260510090901 5 150 0.0 0.0 0.00 0.00 0.00 88 1015.6
20260510090357 5 152 0.0 0.0 0.00 0.00 0.00 89 1015.7
20260510085853 5 151 0.0 0.0 0.00 0.00 0.00 88 1015.7
20260510085348 5 132 0.0 0.0 0.00 0.00 0.00 88 1015.6
20260510084844 6 144 0.0 0.0 0.00 0.00 0.00 88 1015.7
20260510084341 6 157 1.6 1.6 0.00 0.00 0.00 87 1015.6
20260510083838 6 133 0.0 0.0 0.00 0.00 0.00 86 1015.6
20260510083334 6 134 0.0 0.0 0.00 0.00 0.00 85 1015.6
20260510082830 6 104 1.6 1.6 0.00 0.00 0.00 84 1015.5
20260510082327 6 125 0.0 0.0 0.00 0.00 0.00 85 1015.5
20260510081826 6 125 0.0 0.0 0.00 0.00 0.00 85 1015.8
20260510081322 6 126 0.0 0.0 0.00 0.00 0.00 84 1015.8
20260510080819 6 124 0.0 0.0 0.00 0.00 0.00 84 1015.5
20260510080313 6 126 0.0 0.0 0.00 0.00 0.00 86 1015.8
20260510075811 6 125 0.0 0.0 0.00 0.00 0.00 86 1015.8
20260510075308 6 125 0.0 0.0 0.00 0.00 0.00 86 1015.5
20260510074805 6 125 0.0 0.0 0.00 0.00 0.00 85 1015.6
20260510074302 6 125 0.0 0.0 0.00 0.00 0.00 83 1015.7
20260510073758 6 108 0.0 0.0 0.00 0.00 0.00 83 1015.5
20260510073254 6 113 0.0 0.0 0.00 0.00 0.00 82 1015.5
20260510072749 7 146 0.0 0.0 0.00 0.00 0.00 81 1015.7
20260510072246 7 142 0.0 0.0 0.00 0.00 0.00 81 1015.6
20260510071743 7 148 0.0 0.0 0.00 0.00 0.00 81 1015.7
20260510071239 7 147 0.0 0.0 0.00 0.00 0.00 81 1015.9
20260510070738 7 148 0.0 0.0 0.00 0.00 0.00 80 1015.6
20260510070235 7 147 0.0 0.0 0.00 0.00 0.00 80 1015.7
20260510065729 7 147 0.0 0.0 0.00 0.00 0.00 80 1015.6
20260510065226 7 148 0.0 0.0 0.00 0.00 0.00 80 1015.7
20260510064723 7 149 0.0 0.0 0.00 0.00 0.00 81 1015.6
20260510064221 8 149 0.0 0.0 0.00 0.00 0.00 81 1015.6
20260510063717 8 149 0.0 0.0 0.00 0.00 0.00 82 1015.6
20260510063213 8 149 0.0 0.0 0.00 0.00 0.00 81 1015.6
20260510062710 8 149 0.0 0.0 0.00 0.00 0.00 81 1015.7
20260510062206 8 149 0.0 0.0 0.00 0.00 0.00 81 1015.8
20260510061701 8 150 0.0 0.0 0.00 0.00 0.00 80 1015.7
20260510061159 8 150 0.0 0.0 0.00 0.00 0.00 81 1015.7
20260510060655 8 150 0.0 0.0 0.00 0.00 0.00 80 1015.7
20260510060151 8 155 0.0 0.0 0.00 0.00 0.00 81 1015.7
20260510055648 9 130 0.0 0.0 0.00 0.00 0.00 80 1015.6
20260510055146 10 150 0.0 0.0 0.00 0.00 0.00 77 1015.9
20260510054641 10 141 0.0 0.0 0.00 0.00 0.00 71 1015.7
20260510054137 10 142 0.0 0.0 0.00 0.00 0.00 66 1015.8
20260510053636 11 157 1.6 1.6 0.00 0.00 0.00 65 1015.8
20260510053133 11 74 3.2 3.2 0.00 0.00 0.00 65 1015.8
20260510052629 11 106 1.6 1.6 0.00 0.00 0.00 67 1015.7
20260510052126 11 82 3.2 3.2 0.00 0.00 0.00 67 1015.9
20260510051621 11 103 1.6 1.6 0.00 0.00 0.00 68 1015.6
20260510051118 11 130 0.0 0.0 0.00 0.00 0.00 68 1015.8
20260510050615 11 134 0.0 0.0 0.00 0.00 0.00 66 1015.9
20260510050112 11 131 0.0 0.0 0.00 0.00 0.00 65 1015.6
20260510045604 11 157 0.0 1.6 0.00 0.00 0.00 62 1016.0
20260510045100 12 137 0.0 1.6 0.00 0.00 0.00 61 1015.7
20260510044556 11 89 1.6 1.6 0.00 0.00 0.00 60 1015.8
20260510044054 12 70 1.6 3.2 0.00 0.00 0.00 62 1015.9
20260510043549 12 138 0.0 0.0 0.00 0.00 0.00 62 1015.9
20260510043045 12 128 0.0 0.0 0.00 0.00 0.00 62 1015.7
20260510042538 12 108 1.6 1.6 0.00 0.00 0.00 60 1015.7
20260510042034 12 120 0.0 0.0 0.00 0.00 0.00 61 1015.7
20260510041531 12 110 0.0 0.0 0.00 0.00 0.00 61 1015.6
20260510041028 13 151 0.0 1.6 0.00 0.00 0.00 60 1015.7
20260510040520 13 226 0.0 1.6 0.00 0.00 0.00 59 1015.7
20260510040015 13 124 0.0 0.0 0.00 0.00 0.00 59 1015.6
20260510035512 14 111 0.0 0.0 0.00 0.00 0.00 56 1015.1
20260510035011 13 242 0.0 1.6 0.00 0.00 0.00 58 1015.3
20260510034510 14 122 0.0 0.0 0.00 0.00 0.00 56 1015.3
20260510034006 15 121 0.0 0.0 0.00 0.00 0.00 55 1015.1
20260510033501 15 92 1.6 1.6 0.00 0.00 0.00 54 1015.1
20260510033000 15 113 0.0 0.0 0.00 0.00 0.00 51 1015.0
20260510032456 16 254 1.6 3.2 0.00 0.00 0.00 49 1014.9
20260510031951 16 163 0.0 0.0 0.00 0.00 0.00 50 1015.1
20260510031447 16 31 3.2 3.2 0.00 0.00 0.00 46 1015.0
20260510030943 16 149 1.6 1.6 0.00 0.00 0.00 50 1014.9
20260510030438 16 89 1.6 1.6 0.00 0.00 0.00 48 1014.9
20260510025936 16 92 1.6 1.6 0.00 0.00 0.00 49 1014.8
20260510025433 17 75 1.6 1.6 0.00 0.00 0.00 48 1014.7
20260510024931 17 81 1.6 1.6 0.00 0.00 0.00 46 1014.7
20260510024427 17 113 0.0 1.6 0.00 0.00 0.00 49 1014.6
20260510023923 17 116 0.0 0.0 0.00 0.00 0.00 52 1014.7
20260510023419 17 93 0.0 1.6 0.00 0.00 0.00 50 1014.7
20260510022917 18 102 0.0 0.0 0.00 0.00 0.00 48 1014.5
20260510022415 20 168 0.0 0.0 0.00 0.00 0.00 43 1014.6
20260510021915 21 231 1.6 1.6 0.00 0.00 0.00 36 1014.7
20260510021413 21 108 1.6 3.2 0.00 0.00 0.00 33 1014.5
20260510020909 22 175 1.6 1.6 0.00 0.00 0.00 30 1014.9
20260510020404 22 184 3.2 3.2 0.00 0.00 0.00 29 1014.8
20260510015900 22 151 1.6 1.6 0.00 0.00 0.00 29 1014.8
20260510015356 22 142 3.2 3.2 0.00 0.00 0.00 28 1014.7
20260510014851 23 240 3.2 3.2 0.00 0.00 0.00 28 1014.7
20260510014349 23 175 1.6 1.6 0.00 0.00 0.00 28 1014.6
20260510013845 23 132 1.6 1.6 0.00 0.00 0.00 29 1014.8
20260510013341 23 164 1.6 1.6 0.00 0.00 0.00 29 1014.7
20260510012836 24 147 1.6 1.6 0.00 0.00 0.00 30 1014.8
20260510012335 23 202 3.2 3.2 0.00 0.00 0.00 30 1015.0
20260510011830 23 332 3.2 3.2 0.00 0.00 0.00 27 1014.8
20260510011326 23 76 3.2 4.8 0.00 0.00 0.00 30 1014.8
20260510010823 23 55 4.8 4.8 0.00 0.00 0.00 31 1014.9
20260510010320 23 85 1.6 1.6 0.00 0.00 0.00 32 1014.7
20260510005817 25 69 3.2 6.4 0.00 0.00 0.00 31 1015.0
20260510005313 23 173 1.6 1.6 0.00 0.00 0.00 33 1014.8
20260510004811 23 126 1.6 1.6 0.00 0.00 0.00 33 1014.9
20260510004308 23 58 3.2 3.2 0.00 0.00 0.00 32 1014.8
20260510003806 24 140 0.0 1.6 0.00 0.00 0.00 33 1014.9
20260510003302 25 145 1.6 1.6 0.00 0.00 0.00 33 1015.0
20260510002801 25 110 1.6 3.2 0.00 0.00 0.00 33 1014.8
20260510002259 24 131 0.0 0.0 0.00 0.00 0.00 34 1014.9
20260510001755 24 149 1.6 1.6 0.00 0.00 0.00 33 1014.8
20260510001254 24 167 3.2 3.2 0.00 0.00 0.00 33 1014.9
20260510000749 25 99 1.6 3.2 0.00 0.00 0.00 32 1014.8
20260510000248 25 135 0.0 0.0 0.00 0.00 0.00 33 1014.9
20260509235744 25 157 0.0 0.0 0.00 0.00 0.00 32 1014.9
20260509235240 23 141 0.0 1.6 0.00 0.00 0.00 34 1014.9
20260509234736 23 78 4.8 4.8 0.00 0.00 0.00 34 1015.0
20260509234233 24 108 1.6 1.6 0.00 0.00 0.00 34 1015.0
20260509233731 23 96 1.6 1.6 0.00 0.00 0.00 34 1015.1
20260509233228 24 139 1.6 3.2 0.00 0.00 0.00 34 1015.1
20260509232724 24 119 1.6 1.6 0.00 0.00 0.00 33 1014.9
20260509232222 25 160 3.2 3.2 0.00 0.00 0.00 33 1014.9
20260509231718 25 165 1.6 1.6 0.00 0.00 0.00 31 1015.2
20260509231215 24 155 0.0 0.0 0.00 0.00 0.00 32 1015.3
20260509230713 23 144 3.2 3.2 0.00 0.00 0.00 35 1015.1
20260509230209 24 153 1.6 3.2 0.00 0.00 0.00 33 1015.2
20260509225705 24 151 3.2 6.4 0.00 0.00 0.00 34 1015.3
20260509225201 23 131 1.6 1.6 0.00 0.00 0.00 34 1015.1
20260509224656 25 175 3.2 4.8 0.00 0.00 0.00 34 1015.7
20260509224154 24 144 1.6 3.2 0.00 0.00 0.00 34 1015.2
20260509223651 24 120 4.8 4.8 0.00 0.00 0.00 34 1015.2
20260509223148 23 116 3.2 4.8 0.00 0.00 0.00 35 1015.5
20260509222644 23 152 0.0 0.0 0.00 0.00 0.00 37 1015.6
20260509222140 23 127 1.6 3.2 0.00 0.00 0.00 36 1015.6
20260509221636 23 148 1.6 1.6 0.00 0.00 0.00 35 1015.7
20260509221132 23 134 1.6 3.2 0.00 0.00 0.00 36 1015.6
20260509220628 23 118 4.8 6.4 0.00 0.00 0.00 36 1015.9
20260509220124 23 142 3.2 3.2 0.00 0.00 0.00 36 1015.9
20260509215620 22 111 1.6 1.6 0.00 0.00 0.00 38 1015.9
20260509215117 23 143 1.6 3.2 0.00 0.00 0.00 39 1016.0
20260509214614 23 157 4.8 4.8 0.00 0.00 0.00 36 1016.0
20260509214111 22 147 0.0 0.0 0.00 0.00 0.00 38 1016.0
20260509213607 22 89 4.8 6.4 0.00 0.00 0.00 36 1016.1
20260509213104 22 123 3.2 4.8 0.00 0.00 0.00 39 1016.3
20260509212601 22 76 1.6 4.8 0.00 0.00 0.00 38 1016.1
20260509212058 22 143 1.6 1.6 0.00 0.00 0.00 38 1016.3
20260509211554 23 146 0.0 0.0 0.00 0.00 0.00 37 1016.1
20260509211050 23 145 0.0 1.6 0.00 0.00 0.00 38 1016.3
20260509210548 23 147 1.6 3.2 0.00 0.00 0.00 36 1016.5
20260509210044 22 124 4.8 4.8 0.00 0.00 0.00 36 1016.5
20260509205544 21 181 1.6 1.6 0.00 0.00 0.00 36 1016.3
20260509205039 21 49 3.2 4.8 0.00 0.00 0.00 37 1016.6
20260509204536 22 173 1.6 1.6 0.00 0.00 0.00 36 1016.6
20260509204032 21 114 1.6 1.6 0.00 0.00 0.00 38 1016.8
20260509203528 22 139 3.2 4.8 0.00 0.00 0.00 36 1016.5
20260509203027 21 35 3.2 6.4 0.00 0.00 0.00 37 1016.4
20260509202521 22 88 1.6 3.2 0.00 0.00 0.00 36 1016.6
20260509202017 21 145 1.6 1.6 0.00 0.00 0.00 37 1016.6
20260509201512 21 86 3.2 4.8 0.00 0.00 0.00 38 1017.0
20260509201009 20 331 3.2 4.8 0.00 0.00 0.00 39 1016.9
20260509200504 21 127 4.8 4.8 0.00 0.00 0.00 40 1017.0
20260509200001 20 46 3.2 3.2 0.00 0.00 0.00 40 1017.2
20260509195456 20 81 4.8 9.7 0.00 0.00 0.00 42 1017.2
20260509194955 20 70 6.4 6.4 0.00 0.00 0.00 41 1017.3
20260509194451 21 132 0.0 0.0 0.00 0.00 0.00 40 1017.1
20260509193948 20 107 4.8 4.8 0.00 0.00 0.00 40 1017.4
20260509193443 20 150 3.2 4.8 0.00 0.00 0.00 41 1017.6
20260509192939 20 209 4.8 4.8 0.00 0.00 0.00 41 1017.6
20260509192436 21 135 4.8 6.4 0.00 0.00 0.00 40 1017.6
20260509191931 20 109 0.0 0.0 0.00 0.00 0.00 40 1017.7
20260509191426 20 116 0.0 1.6 0.00 0.00 0.00 40 1017.7
20260509190922 19 89 0.0 1.6 0.00 0.00 0.00 42 1017.8
20260509190420 19 151 3.2 3.2 0.00 0.00 0.00 42 1017.7
20260509185918 19 135 3.2 3.2 0.00 0.00 0.00 42 1017.7
20260509185415 19 127 1.6 4.8 0.00 0.00 0.00 43 1017.9
20260509184911 18 87 4.8 4.8 0.00 0.00 0.00 42 1018.1
20260509184408 19 141 0.0 1.6 0.00 0.00 0.00 41 1018.3
20260509183905 18 136 1.6 1.6 0.00 0.00 0.00 44 1018.1
20260509183359 18 96 3.2 4.8 0.00 0.00 0.00 43 1018.1
20260509182856 18 182 6.4 6.4 0.00 0.00 0.00 43 1018.3
20260509182353 19 163 9.7 11.3 0.00 0.00 0.00 44 1018.2
20260509181850 18 146 4.8 4.8 0.00 0.00 0.00 46 1018.3
20260509181347 18 144 1.6 3.2 0.00 0.00 0.00 43 1018.3
20260509180845 18 131 6.4 9.7 0.00 0.00 0.00 45 1018.4
20260509180341 17 164 6.4 9.7 0.00 0.00 0.00 45 1018.4
20260509175838 17 125 3.2 4.8 0.00 0.00 0.00 49 1018.5
20260509175334 17 128 4.8 4.8 0.00 0.00 0.00 48 1018.4
20260509174830 17 126 3.2 3.2 0.00 0.00 0.00 49 1018.6
20260509174326 17 173 8.0 11.3 0.00 0.00 0.00 47 1018.5
20260509173822 17 101 1.6 1.6 0.00 0.00 0.00 48 1018.5
20260509173317 17 107 4.8 4.8 0.00 0.00 0.00 47 1018.5
20260509172814 16 152 4.8 9.7 0.00 0.00 0.00 48 1018.5
20260509172311 16 111 4.8 4.8 0.00 0.00 0.00 50 1018.2
20260509171806 16 148 4.8 4.8 0.00 0.00 0.00 53 1018.5
20260509171302 16 165 6.4 9.7 0.00 0.00 0.00 52 1018.5
20260509170759 15 188 6.4 11.3 0.00 0.00 0.00 54 1018.6
20260509170255 15 126 3.2 4.8 0.00 0.00 0.00 55 1018.6
20260509165754 15 142 4.8 4.8 0.00 0.00 0.00 57 1018.7
20260509165249 15 145 4.8 6.4 0.00 0.00 0.00 58 1018.6
20260509164746 15 147 3.2 4.8 0.00 0.00 0.00 58 1018.5
20260509164241 15 124 3.2 3.2 0.00 0.00 0.00 58 1018.7
20260509163739 14 127 3.2 4.8 0.00 0.00 0.00 59 1019.0
20260509163235 14 136 1.6 1.6 0.00 0.00 0.00 59 1018.8
20260509162733 14 148 3.2 4.8 0.00 0.00 0.00 58 1018.9
20260509162228 15 131 0.0 0.0 0.00 0.00 0.00 56 1018.8
20260509161724 13 142 1.6 3.2 0.00 0.00 0.00 59 1018.9
20260509161220 14 157 1.6 3.2 0.00 0.00 0.00 58 1018.9
20260509160715 13 138 0.0 0.0 0.00 0.00 0.00 59 1018.7
20260509160212 13 105 0.0 1.6 0.00 0.00 0.00 59 1018.9
20260509155707 12 121 0.0 0.0 0.00 0.00 0.00 63 1018.8
20260509155204 12 112 0.0 0.0 0.00 0.00 0.00 63 1018.6
20260509154700 12 96 1.6 1.6 0.00 0.00 0.00 65 1018.8
20260509154157 11 125 1.6 1.6 0.00 0.00 0.00 67 1018.9
20260509153654 11 89 3.2 3.2 0.00 0.00 0.00 68 1019.0
20260509153150 11 158 3.2 3.2 0.00 0.00 0.00 68 1019.1
20260509152646 10 107 0.0 0.0 0.00 0.00 0.00 70 1018.8
20260509152144 10 139 0.0 0.0 0.00 0.00 0.00 72 1018.8
20260509151640 10 111 0.0 0.0 0.00 0.00 0.00 72 1018.8
20260509151137 8 94 3.2 3.2 0.00 0.00 0.00 75 1019.0
20260509150635 8 105 3.2 3.2 0.00 0.00 0.00 74 1018.9
20260509150133 8 94 1.6 3.2 0.00 0.00 0.00 74 1018.9
20260509145629 8 105 0.0 1.6 0.00 0.00 0.00 73 1019.0
20260509145124 8 116 0.0 0.0 0.00 0.00 0.00 75 1019.2
20260509144621 8 102 1.6 1.6 0.00 0.00 0.00 76 1019.0
20260509144118 7 116 0.0 0.0 0.00 0.00 0.00 77 1019.1
20260509143615 7 63 1.6 3.2 0.00 0.00 0.00 79 1019.1
20260509143113 7 124 0.0 0.0 0.00 0.00 0.00 76 1019.1
20260509142608 7 117 0.0 0.0 0.00 0.00 0.00 77 1019.1
20260509142105 6 116 0.0 0.0 0.00 0.00 0.00 79 1019.2
20260509141601 6 117 0.0 0.0 0.00 0.00 0.00 80 1019.1
20260509141057 6 100 0.0 0.0 0.00 0.00 0.00 80 1019.2
20260509140555 5 136 0.0 0.0 0.00 0.00 0.00 83 1019.5
20260509140052 5 134 0.0 0.0 0.00 0.00 0.00 83 1019.2
20260509135549 5 97 0.0 0.0 0.00 0.00 0.00 83 1019.2
20260509135047 4 107 0.0 0.0 0.00 0.00 0.00 85 1019.1
20260509134544 4 94 1.6 1.6 0.00 0.00 0.00 85 1019.1
20260509134041 4 110 0.0 1.6 0.00 0.00 0.00 86 1019.1
20260509133538 4 108 0.0 0.0 0.00 0.00 0.00 86 1019.2
20260509133035 3 113 0.0 0.0 0.00 0.00 0.00 88 1019.2
20260509132533 3 108 0.0 0.0 0.00 0.00 0.00 89 1019.0
20260509132031 3 107 0.0 0.0 0.00 0.00 0.00 89 1019.0
20260509131522 2 108 0.0 0.0 0.00 0.00 0.00 90 1019.0
20260509131019 2 154 0.0 1.6 0.00 0.00 0.00 90 1018.9
20260509130514 2 160 0.0 0.0 0.00 0.00 0.00 91 1019.0
20260509130012 2 113 0.0 0.0 0.00 0.00 0.00 92 1018.8
20260509125508 2 115 0.0 0.0 0.00 0.00 0.00 92 1018.9
20260509125004 1 121 0.0 0.0 0.00 0.00 0.00 92 1018.8
20260509124501 1 120 0.0 0.0 0.00 0.00 0.00 92 1018.8
20260509123958 1 134 0.0 0.0 0.00 0.00 0.00 92 1018.7
20260509123456 1 134 0.0 0.0 0.00 0.00 0.00 92 1018.8
20260509122951 1 172 1.6 1.6 0.00 0.00 0.00 93 1018.8
20260509122449 1 143 0.0 0.0 0.00 0.00 0.00 93 1018.9
20260509121945 1 126 0.0 0.0 0.00 0.00 0.00 92 1019.0
20260509121442 1 126 0.0 0.0 0.00 0.00 0.00 92 1018.7
20260509120940 1 99 0.0 0.0 0.00 0.00 0.00 92 1019.0
20260509120438 2 143 0.0 0.0 0.00 0.00 0.00 92 1018.8
20260509115936 2 148 0.0 0.0 0.00 0.00 0.00 92 1018.9
20260509115433 2 168 0.0 0.0 0.00 0.00 0.00 92 1018.7
20260509114930 2 117 0.0 0.0 0.00 0.00 0.00 92 1018.8
20260509114429 2 147 0.0 0.0 0.00 0.00 0.00 92 1018.6
20260509113928 2 120 0.0 0.0 0.00 0.00 0.00 92 1018.7
20260509113424 2 120 0.0 0.0 0.00 0.00 0.00 91 1018.7
20260509112921 2 125 0.0 0.0 0.00 0.00 0.00 90 1018.5
20260509112419 2 146 0.0 0.0 0.00 0.00 0.00 90 1018.6
20260509111915 2 151 0.0 0.0 0.00 0.00 0.00 90 1018.3
20260509111412 2 150 0.0 0.0 0.00 0.00 0.00 90 1018.4
20260509110910 2 154 0.0 0.0 0.00 0.00 0.00 90 1018.5
20260509110406 2 186 1.6 1.6 0.00 0.00 0.00 89 1018.3
20260509105904 3 114 0.0 0.0 0.00 0.00 0.00 89 1018.5
20260509105402 3 129 0.0 0.0 0.00 0.00 0.00 88 1018.3
20260509104858 3 148 0.0 0.0 0.00 0.00 0.00 87 1018.4
20260509104355 3 116 0.0 0.0 0.00 0.00 0.00 88 1018.5
20260509103853 3 109 0.0 0.0 0.00 0.00 0.00 88 1018.3
20260509103350 3 117 0.0 0.0 0.00 0.00 0.00 87 1018.3
20260509102849 3 112 0.0 0.0 0.00 0.00 0.00 87 1018.3
20260509102346 3 112 0.0 0.0 0.00 0.00 0.00 86 1018.2
20260509101841 3 112 0.0 0.0 0.00 0.00 0.00 86 1018.2
20260509101337 3 81 0.0 0.0 0.00 0.00 0.00 86 1017.9
20260509100836 3 224 1.6 1.6 0.00 0.00 0.00 86 1018.2
20260509100333 3 114 0.0 0.0 0.00 0.00 0.00 85 1018.2
20260509095829 4 125 0.0 0.0 0.00 0.00 0.00 85 1018.1
20260509095326 4 152 0.0 0.0 0.00 0.00 0.00 84 1017.9
20260509094824 4 143 1.6 1.6 0.00 0.00 0.00 85 1018.3
20260509094320 4 121 0.0 0.0 0.00 0.00 0.00 84 1018.3
20260509093818 4 120 0.0 0.0 0.00 0.00 0.00 83 1018.3